Airfield :
LOGIN :

Register | Disclaimer

   EN    FR    IT 

 










Legend :    VFR   Marginal VFR   IFR   Intensive IFR   Very Intensive IFR
Visi :
Ceiling :
>= 8 km
>= 3000ft
5 to 8 km
1000 to 3000 ft
1500m to 5 km
500 to 1000 ft
800 to 1500m
200 to 500 ft
< 800m
< 200 ft
Symbols :   Thunderstorms  Fog  Heavy snow  Heavy precipitations  Wind > 20 kt
SIGMETs :     Misc.  Thunderstorms  Icing  Turbulence  Mountain Waves  Volcanic Ashes







- Airport Elevation : 726 ft
- IATA code : DIJ
- Download approach charts


LFSD - Dijon

CURRENT METAR :
  • 192000Z AUTO VRB03KT CAVOK 12/09 Q1013

EXPIRED METARs :
  • 191930Z AUTO 31002KT CAVOK 12/10 Q1012
  • 191900Z AUTO 28002KT CAVOK 13/10 Q1012
  • 191830Z AUTO 00000KT CAVOK 14/10 Q1012
  • 191800Z AUTO 00000KT CAVOK 15/11 Q1012
  • 191730Z AUTO 13003KT CAVOK 16/11 Q1012

Expired Forecast.
No reported NOTAMs for that airfield.



MET'MAP, your aeronautical weather chart ! - Copyright ORBIFLY December 2007 - Disclaimer

ORBIFLY MET'MAP TEAM :

Programming & Development : Alexandra Zaïnal
Concept & Development : Baudouin d'Aumeries
Co-Development & Prog : Marc-Olivier Méhu
Technical & hardware support : Manuel Goepfert

Contact : metmap@orbifly.com




SOURCES & CREDITS :

   NOAA